{"data":{"norad_id":64624,"intl_designator":"2025-138D","name":"KESTREL-0A","alt_names":[],"object_type":"PAYLOAD","status":"ACTIVE","operator":null,"country":"US","launch_date":"2025-06-26","launch_site_code":"RLLB","launch_vehicle":null,"mission":null,"orbit_class":"UNKNOWN","rcs_meters":null,"size_class":null,"mass_kg":null,"dimensions":null,"purposes":[],"wikipedia_slug":null,"has_3d_model":false,"image_url":null,"decayed_at":null,"tle_current":{"epoch":"2026-05-24T23:26:01.976064Z","epoch_age_seconds":77202,"freshness":"FRESH","line1":"1 64624U 25138D   26144.97641176  .00007732  00000+0  33352-3 0  9996","line2":"2 64624  97.4409 149.3356 0012660 197.6117 162.4682 15.22747641 50413","mean_motion":15.22747641,"eccentricity":0.001266,"inclination_deg":97.4409,"raan_deg":149.3356,"arg_perigee_deg":197.6117,"mean_anomaly_deg":162.4682,"bstar":0.00033352,"rev_number":5041,"period_min":94.565899248699,"perigee_km":488.85254102976,"apogee_km":506.26179866782,"semimajor_km":6875.6941698488,"source":"CELESTRAK","updated_at":"2026-05-25T13:38:04.670509Z"}}}